Latest Weather Observations for Cooma Airport

IDN60901

Issued at 7:41 pm EST Sunday 5 July 2015 (issued every 10 minutes, with the page automatically refreshed every 10 minutes)

About weather observations | Map of Canberra area stations | Latest observations for Canberra area | Other Formats
Station Details ID: 070217 Name: COOMA AIRPORT AWS Lat: -36.29 Lon: 148.97 Height: 930.0 m
Data from the previous 72 hours. | See also: Recent months for locations in Aust Capital Territory
Date/Time
EST
Tmp

°C
App
Tmp
°C
Dew
Point
°C
Rel
Hum
%
Delta-T

°C
Wind Press
QNH
hPa
Press
MSL
hPa
Rain
since
9 am
mm
Dir
 
Spd
km/h
Gust
km/h
Spd
kts
Gust
kts
05/07:30pm -0.4 -2.6 -1.5 92 0.4 CALM 0 0 0 0 1017.8 1019.4 0.0
05/07:00pm -0.2 -2.4 -1.6 90 0.5 CALM 0 6 0 3 1017.6 1019.3 0.0
05/06:30pm 0.7 -1.5 -1.7 84 0.9 CALM 0 0 0 0 1017.5 1019.1 0.0
05/05:30pm 4.1 2.1 0.1 75 1.6 CALM 0 0 0 0 1017.1 1018.7 0.0
05/05:00pm 5.4 2.2 0.6 71 2.0 NNE 7 9 4 5 1017.0 1018.6 0.0
05/04:30pm 7.9 4.1 1.7 65 2.7 NNE 11 13 6 7 1016.9 1018.5 0.0
05/04:00pm 9.1 5.8 2.7 64 2.9 NE 9 13 5 7 1016.9 1018.5 0.0
05/03:30pm 9.0 4.8 1.9 61 3.1 NE 13 15 7 8 1016.9 1018.5 0.0
05/03:00pm 11.0 7.6 2.1 54 4.0 ENE 9 13 5 7 1016.7 1018.3 0.0
05/02:30pm 11.4 7.8 2.7 55 4.0 NE 11 17 6 9 1016.8 1018.4 0.0
05/02:00pm 10.3 6.7 3.1 61 3.3 E 11 15 6 8 1017.1 1018.7 0.0
05/01:30pm 10.3 7.0 2.4 58 3.6 NE 9 13 5 7 1017.3 1018.9 0.0
05/01:00pm 10.4 7.2 3.0 60 3.4 NE 9 11 5 6 1017.5 1019.1 0.0
05/12:30pm 9.7 6.0 2.6 61 3.2 NE 11 15 6 8 1018.0 1019.6 0.0
05/12:00pm 8.4 4.6 2.0 64 2.8 NE 11 15 6 8 1018.4 1020.0 0.0
05/11:30am 7.3 3.6 2.4 71 2.2 NE 11 15 6 8 1019.2 1020.8 0.0
05/11:00am 6.1 1.8 1.2 71 2.1 NE 13 17 7 9 1019.7 1021.4 0.0
05/10:30am 4.7 -0.3 1.4 79 1.4 NE 17 20 9 11 1019.9 1021.6 0.0
05/10:00am 2.9 -1.8 1.0 87 0.8 NE 15 19 8 10 1020.2 1021.8 0.0
05/09:30am 1.3 -4.0 -0.3 89 0.6 NNE 17 19 9 10 1020.3 1021.9 0.0
05/09:00am 0.7 -3.8 -0.4 92 0.4 NE 13 17 7 9 1020.3 1021.9 0.0
05/08:30am -0.5 -5.5 -1.1 96 0.2 NE 15 17 8 9 1020.4 1022.1 0.0
05/08:00am -2.0 -6.7 -2.1 99 -0.1 NE 13 15 7 8 1020.4 1022.1 0.0
05/07:30am -4.6 -9.3 -5.0 97 -0.1 NNE 11 13 6 7 1020.2 1021.8 0.0
05/07:00am -3.8 -8.0 -4.2 97 0.0 NNE 9 11 5 6 1020.3 1021.9 0.0
05/06:30am -2.5 -7.3 -2.6 99 -0.1 N 13 13 7 7 1020.0 1021.7 0.0
05/05:30am -2.4 -6.1 -2.5 99 -0.1 N 7 9 4 5 1019.7 1021.4 0.0
05/05:00am -3.4 -7.6 -3.8 97 0.0 NNE 9 11 5 6 1019.7 1021.4 0.0
05/04:30am -2.2 -7.1 -3.0 94 0.2 N 13 15 7 8 1019.7 1021.4 0.0
05/04:00am -1.6 -5.5 -1.7 99 0.0 N 9 11 5 6 1019.5 1021.2 0.0
05/03:30am -2.6 -7.0 -2.7 99 -0.1 NNE 11 13 6 7 1019.9 1021.6 0.0
05/03:00am -2.7 -7.2 -3.1 97 0.0 NE 11 13 6 7 1019.7 1021.4 0.0
05/02:30am -1.7 -6.1 -2.1 97 0.1 NNE 11 13 6 7 1019.9 1021.6 0.0
05/02:00am -1.3 -5.6 -1.7 97 0.1 NNE 11 13 6 7 1020.2 1021.8 0.0
05/01:30am -1.1 -5.0 -1.5 97 0.1 ENE 9 9 5 5 1020.3 1021.9 0.0
05/01:00am -0.8 -4.7 -1.5 95 0.2 ENE 9 11 5 6 1020.4 1022.1 0.0
05/12:30am 0.1 -4.1 -0.7 94 0.3 NNE 11 15 6 8 1020.5 1022.2 0.0
 
Date/Time
EST
Tmp

°C
App
Tmp
°C
Dew
Point
°C
Rel
Hum
%
Delta-T

°C
Wind Press
QNH
hPa
Press
MSL
hPa
Rain
since
9 am
mm
Dir
 
Spd
km/h
Gust
km/h
Spd
kts
Gust
kts
04/11:30pm 0.7 -2.4 0.0 95 0.3 N 6 7 3 4 1020.7 1022.4 0.0
04/11:00pm 1.0 -2.2 0.9 99 0.0 N 7 9 4 5 1020.8 1022.5 0.0
04/10:30pm -0.6 -4.1 -1.3 95 0.2 NNE 7 9 4 5 1020.8 1022.5 0.0
04/10:00pm 0.3 -3.0 -1.1 90 0.5 N 6 7 3 4 1020.8 1022.5 0.0
04/09:30pm 0.9 -1.0 0.5 97 0.2 CALM 0 0 0 0 1020.9 1022.6 0.0
04/09:00pm 0.2 -1.8 -0.2 97 0.2 CALM 0 0 0 0 1020.9 1022.6 0.0
04/08:30pm 0.1 -2.0 -0.5 96 0.2 CALM 0 0 0 0 1020.7 1022.4 0.0
04/08:00pm -0.5 -2.7 -1.6 92 0.4 CALM 0 0 0 0 1020.8 1022.5 0.0
04/07:30pm -0.1 -3.4 -1.2 92 0.4 NW 6 9 3 5 1020.7 1022.4 0.0
04/07:00pm 0.2 -2.8 -1.5 88 0.6 NNE 4 9 2 5 1020.6 1022.3 0.0
04/06:30pm 1.5 -0.6 -0.6 86 0.8 CALM 0 0 0 0 1020.3 1021.9 0.0
04/06:00pm 2.2 0.1 -1.1 79 1.3 CALM 0 0 0 0 1020.0 1021.7 0.0
04/05:30pm 3.7 0.4 0.2 78 1.4 SSW 7 9 4 5 1019.6 1021.3 0.0
04/05:00pm 6.2 2.6 0.7 68 2.3 S 9 9 5 5 1019.5 1021.2 0.0
04/04:30pm 8.7 4.2 2.1 63 2.9 S 15 19 8 10 1019.4 1021.1 0.0
04/04:00pm 9.7 5.2 2.1 59 3.4 SSW 15 20 8 11 1019.4 1021.1 0.0
04/03:30pm 10.1 5.5 1.5 55 3.8 SW 15 22 8 12 1019.2 1020.8 0.0
04/03:00pm 10.2 6.4 1.6 55 3.8 SW 11 19 6 10 1019.2 1020.8 0.0
04/02:30pm 8.8 5.3 1.2 59 3.3 S 9 13 5 7 1019.2 1020.8 0.0
04/02:00pm 8.6 5.1 1.5 61 3.1 SW 9 13 5 7 1019.3 1020.9 0.0
04/01:30pm 7.8 2.7 0.5 60 3.1 SW 17 20 9 11 1019.4 1021.1 0.0
04/01:00pm 8.2 2.3 2.0 65 2.7 SW 22 30 12 16 1019.4 1021.1 0.0
04/12:30pm 7.2 1.7 0.6 63 2.8 SSW 19 24 10 13 1019.8 1021.5 0.0
04/12:00pm 6.2 3.0 -0.7 61 2.8 SSW 6 13 3 7 1020.5 1022.2 0.0
04/11:30am 4.4 2.4 0.0 73 1.8 CALM 0 6 0 3 1020.9 1022.6 0.0
04/11:00am 0.7 -1.5 -1.2 87 0.7 CALM 0 0 0 0 1021.4 1023.1 0.0
04/10:30am 0.4 -3.0 -1.7 86 0.8 SSW 6 7 3 4 1021.4 1023.1 0.0
04/10:00am 0.3 -3.6 -1.4 88 0.6 S 9 11 5 6 1021.4 1023.1 0.0
04/09:30am -0.3 -3.2 -1.3 93 0.4 S 4 7 2 4 1021.3 1023.0 0.0
04/09:00am -1.7 -4.0 -2.7 93 0.3 CALM 0 0 0 0 1021.0 1022.7 0.2
04/08:30am -2.5 -4.9 -3.0 96 0.1 CALM 0 0 0 0 1020.6 1022.3 0.2
04/08:00am -2.6 -5.0 -3.1 96 0.1 CALM 0 0 0 0 1021.1 1022.8 0.2
04/07:30am -2.7 -6.3 -3.5 94 0.2 NW 6 9 3 5 1020.7 1022.4 0.2
04/07:00am -2.8 -6.4 -3.5 95 0.1 NNW 6 7 3 4 1020.6 1022.3 0.2
04/06:30am -3.1 -6.0 -3.8 95 0.1 NNW 2 7 1 4 1020.5 1022.2 0.2
04/06:00am -3.7 -6.6 -4.2 96 0.0 SSW 2 9 1 5 1020.2 1021.8 0.2
04/05:30am -3.7 -6.2 -4.2 96 0.0 CALM 0 0 0 0 1019.8 1021.5 0.2
04/05:00am -3.7 -7.6 -4.5 94 0.1 NW 7 9 4 5 1019.9 1021.6 0.2
04/04:30am -3.5 -8.1 -4.0 96 0.0 N 11 11 6 6 1019.3 1020.9 0.2
04/04:00am -3.9 -8.2 -4.7 94 0.1 N 9 11 5 6 1019.4 1021.1 0.2
04/03:30am -4.4 -9.1 -5.4 93 0.1 NE 11 13 6 7 1019.7 1021.4 0.2
04/03:00am -4.1 -9.2 -5.3 91 0.2 NNE 13 15 7 8 1019.9 1021.6 0.2
04/02:30am -3.7 -9.1 -4.9 91 0.2 NE 15 17 8 9 1020.3 1021.9 0.2
04/02:00am -3.9 -9.3 -4.6 95 0.1 NE 15 17 8 9 1020.6 1022.3 0.2
04/01:30am -5.4 -10.2 -6.3 93 0.1 NNE 11 15 6 8 1020.9 1022.6 0.2
04/01:00am -5.8 -9.7 -6.5 95 0.0 N 6 13 3 7 1021.0 1022.7 0.2
04/12:30am -5.6 -8.7 -6.5 93 0.1 NNW 2 7 1 4 1021.5 1023.2 0.2
04/12:00am -5.7 -9.6 -6.5 94 0.0 N 6 7 3 4 1021.8 1023.5 0.2
 
Date/Time
EST
Tmp

°C
App
Tmp
°C
Dew
Point
°C
Rel
Hum
%
Delta-T

°C
Wind Press
QNH
hPa
Press
MSL
hPa
Rain
since
9 am
mm
Dir
 
Spd
km/h
Gust
km/h
Spd
kts
Gust
kts
03/11:30pm -6.2 -9.1 -7.6 90 0.2 CALM 0 0 0 0 1022.0 1023.7 0.2
03/11:00pm -6.1 -9.7 -7.5 90 0.2 N 4 11 2 6 1022.3 1024.1 0.2
03/10:30pm -6.3 -9.1 -7.4 92 0.1 CALM 0 0 0 0 1022.8 1024.5 0.2
03/10:00pm -6.0 -8.8 -7.2 91 0.1 CALM 0 0 0 0 1022.7 1024.4 0.2
03/09:30pm -6.2 -9.0 -7.4 91 0.1 CALM 0 0 0 0 1023.2 1025.0 0.2
03/09:00pm -6.0 -8.9 -8.0 86 0.4 CALM 0 0 0 0 1023.0 1024.7 0.2
03/08:30pm -5.4 -9.0 -7.7 84 0.5 NNE 4 7 2 4 1022.9 1024.6 0.2
03/08:00pm -3.8 -6.9 -6.4 82 0.6 NW 2 7 1 4 1023.0 1024.7 0.2
03/07:30pm -2.9 -5.5 -4.5 89 0.4 CALM 0 0 0 0 1023.0 1024.7 0.2
03/07:00pm -3.0 -7.0 -5.2 85 0.6 N 7 9 4 5 1022.9 1024.6 0.2
03/06:30pm -1.5 -5.3 -3.8 84 0.7 N 7 9 4 5 1022.9 1024.6 0.2
03/06:00pm -0.2 -4.3 -3.4 79 1.1 NNE 9 9 5 5 1022.9 1024.6 0.2
03/05:30pm 1.2 -2.8 -1.9 80 1.1 NNE 9 11 5 6 1022.7 1024.4 0.2
03/05:00pm 0.7 -3.8 -3.2 75 1.4 NE 11 13 6 7 1022.5 1024.2 0.2
03/04:30pm 4.2 -0.4 -1.4 67 2.2 NNE 13 15 7 8 1022.5 1024.2 0.2
03/04:00pm 5.8 0.8 -1.3 60 2.8 NNE 15 20 8 11 1022.5 1024.2 0.2
03/03:30pm 6.9 2.2 -1.5 55 3.3 NNE 13 17 7 9 1022.5 1024.2 0.2
03/03:00pm 6.4 2.2 -1.0 59 3.0 NE 11 17 6 9 1022.6 1024.3 0.0
03/02:30pm 5.8 1.9 -1.8 58 3.0 NE 9 13 5 7 1022.7 1024.4 0.0
03/02:00pm 5.8 2.4 -1.8 58 3.0 ENE 6 13 3 7 1022.9 1024.6 0.0
03/01:30pm 5.4 2.0 -1.7 60 2.8 ENE 6 11 3 6 1023.2 1025.0 0.0
03/01:00pm 4.3 1.0 -1.5 66 2.2 SSE 6 13 3 7 1023.9 1025.6 0.0
03/12:30pm 4.5 1.6 -1.3 66 2.3 SE 4 13 2 7 1024.6 1026.4 0.0
03/12:00pm 3.7 0.4 -1.4 69 2.0 SSW 6 15 3 8 1025.1 1026.9 0.0
03/11:30am 2.7 -1.6 -1.8 72 1.7 WSW 11 17 6 9 1025.7 1027.5 0.0
03/11:00am 2.5 -2.2 -1.8 73 1.6 SSW 13 20 7 11 1026.0 1027.8 0.0
03/10:30am 2.3 -2.3 -0.8 80 1.2 SSW 13 20 7 11 1026.2 1028.0 0.0
03/10:00am 2.0 -3.7 -0.9 81 1.1 SSW 19 26 10 14 1026.1 1027.9 0.0
03/09:30am 1.7 -4.3 -1.5 79 1.2 SSW 20 28 11 15 1026.0 1027.8 0.0
03/09:00am 1.1 -4.9 -1.6 82 1.0 SSW 20 30 11 16 1025.7 1027.5 0.6
03/08:30am 0.8 -5.6 -1.4 85 0.9 SSW 22 28 12 15 1025.2 1027.0 0.6
03/08:00am 0.0 -6.7 -1.3 91 0.5 SW 24 30 13 16 1025.1 1026.9 0.6
03/07:30am -0.6 -5.7 -1.7 92 0.4 SW 15 20 8 11 1025.2 1027.0 0.6
03/07:00am -0.2 -6.1 -2.3 86 0.7 SW 19 26 10 14 1024.9 1026.6 0.6
03/06:30am 0.1 -5.8 -2.3 84 0.9 SW 19 24 10 13 1024.5 1026.3 0.6
03/06:00am -0.1 -5.9 -1.8 88 0.6 SW 19 20 10 11 1024.3 1026.1 0.6
03/05:30am -0.3 -5.8 -2.2 87 0.7 SW 17 20 9 11 1024.1 1025.9 0.6
03/05:00am -3.1 -6.8 -4.1 93 0.2 SSW 6 7 3 4 1024.2 1026.0 0.6
03/04:30am -2.8 -7.5 -4.8 86 0.5 SW 11 15 6 8 1024.0 1025.8 0.6
03/04:00am -2.0 -6.2 -4.3 84 0.7 WNW 9 11 5 6 1023.8 1025.5 0.6
03/03:30am -1.6 -5.8 -3.8 85 0.7 W 9 11 5 6 1023.9 1025.6 0.6
03/03:00am -1.0 -6.3 -3.4 84 0.8 SW 15 20 8 11 1024.0 1025.8 0.6
03/02:30am -0.6 -5.0 -2.3 88 0.6 SSW 11 15 6 8 1024.2 1026.0 0.6
03/02:00am -0.5 -6.6 -2.7 85 0.8 SW 20 28 11 15 1024.1 1025.9 0.6
03/01:30am 0.5 -7.1 -2.2 82 1.0 SW 28 44 15 24 1023.9 1025.6 0.6
03/01:00am 0.9 -5.9 -2.0 81 1.1 SW 24 30 13 16 1024.0 1025.8 0.6
03/12:30am 0.5 -5.0 -2.0 83 0.9 SW 17 28 9 15 1024.1 1025.9 0.6
03/12:00am 0.3 -5.7 -1.9 85 0.8 SW 20 24 11 13 1024.0 1025.8 0.6
 
Date/Time
EST
Tmp

°C
App
Tmp
°C
Dew
Point
°C
Rel
Hum
%
Delta-T

°C
Wind Press
QNH
hPa
Press
MSL
hPa
Rain
since
9 am
mm
Dir
 
Spd
km/h
Gust
km/h
Spd
kts
Gust
kts
02/11:30pm 0.4 -5.1 -2.3 82 1.0 SSW 17 24 9 13 1024.2 1026.0 0.6
02/11:00pm 0.5 -6.4 -2.4 81 1.1 SW 24 33 13 18 1024.0 1025.8 0.6
02/10:30pm 0.8 -6.1 -2.4 79 1.2 SW 24 35 13 19 1023.8 1025.5 0.6
02/10:00pm 0.9 -6.3 -2.1 80 1.1 SW 26 39 14 21 1023.7 1025.4 0.6
02/09:30pm -0.4 -6.6 -2.9 83 0.9 SW 20 24 11 13 1023.6 1025.3 0.6
02/09:00pm 0.3 -6.6 -2.4 82 1.0 SW 24 30 13 16 1022.9 1024.6 0.6
02/08:30pm 0.3 -4.9 -2.4 82 1.0 WSW 15 20 8 11 1023.0 1024.7 0.6
02/08:00pm 0.7 -6.2 -2.5 79 1.2 SW 24 30 13 16 1022.5 1024.2 0.6

Latest Capital City Observations: Canberra | Sydney | Melbourne | Brisbane | Adelaide | Perth | Hobart | Darwin

Other Formats:

Comma delimited format used in spreadsheet applications
http://www.bom.gov.au/fwo/IDN60903/IDN60903.94921.axf

JavaScript Object Notation format (JSON) in row-major order
http://www.bom.gov.au/fwo/IDN60903/IDN60903.94921.json